Weather in Gazipur

Bangladesh     23°59′49″N   90°25′03″E
temp.,
°C
wind,
m/s
gust,
m/s
humid.,
%
clouds,
%
prec.,
mm/h
press.,
hPa
HPBL,
m
19 april, mon
mon1900:00+23sse49790 7.4 1008225
03:00+23ese33845 0.0 100786
06:00+24ne22850 0.0 100871
09:00+31s45540 0.1 1009845
12:00+37ssw272324 0.1 10074071
15:00+39w67133 0.0 10034278
18:00+35wsw11170 0.0 100211
21:00+28se712740 0.0 1005508
20 april, tue
tue2000:00+27s611800 0.0 1005504
03:00+26sse24855 0.0 1005122
06:00+25sse48894 0.0 1006391
09:00+32ssw45540 0.0 10081175
12:00+38s46280 0.0 10062621
15:00+40w461431 0.0 10024070
18:00+35s811379 0.0 1002527
21:00+30s711580 0.0 1006551
21 april, wed
wed2100:00+28ssw510660 0.0 1007475
03:00+26s48779 0.0 1006373
06:00+25se478857 0.0 1008343
09:00+32s565213 0.0 10101216
12:00+38s56321 0.0 10072131
15:00+42sse5820100 0.0 10033908
18:00+35s10133613 0.0 10031025
21:00+31s7115338 0.0 1007651
22 april, thu
thu2200:00+28ssw6106712 0.0 1007672
03:00+27sse58774 0.0 1006324
06:00+26sse49855 0.0 1008518
09:00+32s56550 0.0 10091131
12:00+38s553432 0.0 10072134
15:00+41sse562490 0.0 10023263
18:00+28sse91452100 0.1 1003472
21:00+24e6780100 2.4 1008144
23 april, fri
fri2300:00+26s497719 2.5 1006274
03:00+24ssw22855 0.0 100535
06:00+24se357737 0.0 1007120
09:00+31s45581 0.0 10091045
12:00+37s55370 0.0 10062009
15:00+41sw4721100 0.0 10023954
18:00+36ssw462898 0.0 1002191
21:00+29s7136698 0.0 1005468